星链-36481(STARLINK-36481)

导读

STARLINK-36481是美国星链项目的卫星,于2026年1月4日发射。作为星链星座组网卫星,它旨在为全球提供高速低延迟卫星互联网服务,覆盖偏远地区与网络薄弱区域,填补地面通信网络覆盖空白,进一步完善星链全球通信网络布局。

Basic Information
目录编号:
67307
目录名称:
STARLINK-36481
国际标识:
2026-002C
轨道中心:
EARTH
卫星名称:
星链-36481
卫星全名:
星链-36481(STARLINK-36481)
卫星状态:
在轨 (已飞行250 天)
发射日期:
2026-01-04 UTC
国别 :
美国 (US)
星等 :
--
This satellite is enrolled in the Space Conjunction Data Service (SCDS) and the current flight risk assessment level is: High Risk
Orbit Information
数据来源 国际轨道数据
星历时间: 2026-09-11T15:04:28+0800
5小时前
查看轨道信息
半长轴: 6861.163km
偏心率: 0.0001902
轨道倾角: 43.001°
近地点辐角 270.769°
升交点赤经 357.170°
平近点角 89.294°
近地点: 481.721km
远地点: 484.331km
周期: 94.266分钟
每日圈数: 15.275879
Detailed Information
固有亮度:
5
最大亮度:
2.5
卫星平台:
Starlink V1.0
覆盖范围:
全球
运营商:
太空探索技术公司
运营商所在国:
美国
制造商(研发单位):
太空探索技术公司
制造商所在国:
美国
使用方式:
暂无
Satellite Introduction
Starlink 计划是 SpaceX 推出的全球卫星互联网项目,通过发射低轨道卫星,为全球尤其是偏远地区提供高速、低延迟的互联网服务。自 2019 年起,Starlink 已部署数千颗卫星,旨在缩小全球数字鸿沟,推动互联网普及。该项目还为军事、航空等行业提供通信支持,带来广泛经济效益。
2D Orbit Map
3D Orbit Map
Orbit Altitude Analysis Chart
Orbit Inclination Analysis Chart
Orbit Comprehensive Analysis Chart
View Comprehensive Chart
Conjunction Data List
Event ID Objects TCA Miss Dist (km) Collision Risk Probability Collision Risk Index (CRI) Action
CDM_260913-132505-929606-730721
2026-09-13T
13:25:42+0000
0.356 km
远距离
2.902206E-4 高风险 0.84
CDM_260913-080505-790106-730721
2026-09-13T
08:05:19+0000
0.982 km
远距离
5.977391E-6 低风险 0.51
CDM_260913-145905-929606-730721
2026-09-13T
14:59:51+0000
1.414 km
极远距离
5.310633E-6 低风险 0.5
CDM_260913-054405-790106-730721
2026-09-13T
05:44:06+0000
1.393 km
极远距离
1.899936E-6 低风险 0.41
CDM_260913-115105-929606-730721
2026-09-13T
11:51:32+0000
2.025 km
极远距离
1.872216E-6 低风险 0.4
CDM_260913-093905-790106-730721
2026-09-13T
09:39:29+0000
1.579 km
极远距离
1.318013E-6 低风险 0.37
CDM_260913-071805-790106-730721
2026-09-13T
07:18:15+0000
1.590 km
极远距离
1.292739E-6 低风险 0.37
CDM_260912-171205-993906-730721
2026-09-12T
17:12:55+0000
2.733 km
极远距离
3.38134E-7 极低风险 0.26
Miss Distance Evolution Trend with All Objects
Collision Probability Evolution Trend with All Objects